This is the latest recevied weather packets stored in our database for station/object KE5KUL-13. If no packets are shown the sender has not sent any weather packets the latest 10 day(s).
| Time | Temp. | Humidity | Pressure | Rain* | Wind** | Luminosity | Snow |
|---|---|---|---|---|---|---|---|
| 1777379718 | 10.56° C | 76% | 1014.3 hPa | 0 mm | - | - | - |
| 1777379118 | 10.56° C | 76% | 1014.2 hPa | 0 mm | - | - | - |
| 1777378808 | 10.56° C | 75% | 1013.9 hPa | 0 mm | - | - | - |
| 1777377918 | 11.11° C | 75% | 1013.7 hPa | 0 mm | - | - | - |
| 1777377318 | 11.11° C | 74% | 1013.9 hPa | 0 mm | - | - | - |
| 1777376718 | 11.11° C | 73% | 1013.9 hPa | 0 mm | - | - | - |
| 1777376118 | 11.67° C | 73% | 1014 hPa | 0 mm | - | - | - |
| 1777375518 | 11.67° C | 73% | 1014.1 hPa | 0 mm | - | - | - |
| 1777374918 | 11.67° C | 71% | 1014.2 hPa | 0 mm | - | - | - |
| 1777374318 | 11.67° C | 71% | 1013.9 hPa | 0 mm | - | - | - |
| 1777373718 | 12.22° C | 70% | 1014 hPa | 0 mm | - | - | - |
| 1777373118 | 12.22° C | 68% | 1014 hPa | 0 mm | - | - | - |
| 1777372518 | 12.78° C | 67% | 1014.3 hPa | 0 mm | - | - | - |
| 1777371918 | 12.78° C | 66% | 1014.3 hPa | 0 mm | - | - | - |
| 1777371318 | 13.33° C | 65% | 1014.4 hPa | 0 mm | - | - | - |
| 1777370718 | 13.33° C | 65% | 1014.3 hPa | 0 mm | - | - | - |
| 1777370118 | 13.89° C | 64% | 1014.4 hPa | 0 mm | - | - | - |
| 1777369517 | 13.89° C | 63% | 1014.4 hPa | 0 mm | - | - | - |
| 1777368936 | 13.89° C | 60% | 1014.6 hPa | 0 mm | - | - | - |
| 1777368318 | 14.44° C | 58% | 1014.8 hPa | 0 mm | - | - | - |
| 1777367718 | 14.44° C | 58% | 1014.5 hPa | 0 mm | - | - | - |
| 1777367118 | 14.44° C | 58% | 1014.4 hPa | 0 mm | - | - | - |
| 1777366518 | 14.44° C | 58% | 1014.3 hPa | 0 mm | - | - | - |
| 1777365918 | 13.33° C | 61% | 1013.9 hPa | 0 mm | - | - | - |
| 1777365318 | 12.78° C | 61% | 1014.5 hPa | 0 mm | - | - | - |
* Rain latest hour (hover to see other rain measurements)
** Current wind speed in m/s (hover to see current wind gust speed)